sat.trackr.live / text

‹ back to catalog

STARLINK-35015

NORAD 65283 · 2025-184L

PAYLOAD ACTIVE UNKNOWN

§ Identity

Operator
Country
US
Launch date
2025-08-22
Launch site
AFWTR
Launch vehicle
Mass (kg)
RCS (m²)

Purposes: comms

External: N2YO · Heavens-Above · Gunter

§ Orbital elements

Epoch: 2026-05-25T03:55:52.438368Z

Period
95.64 min
Inclination
97.4502°
Eccentricity
0.0001255
Mean motion
15.05651616 rev/d
Perigee alt
548.6 km
Apogee alt
550.4 km
Semi-major
6,927.6 km
B*
7.4800e-5
RAAN
197.6054°
Arg perigee
148.9471°
Mean anomaly
211.1831°
Rev number
4,280

§ Raw data

STARLINK-350151 65283U 25184L   26145.16380137  .00001021  00000+0  74800-4 0  99972 65283  97.4502 197.6054 0001255 148.9471 211.1831 15.05651616 42809

JSON: /api/v1/satellites/65283 · /tle

For live sub-satellite position, see the globe view (requires WebGL).

§ Visibility from observer

Set your observer location to see the next 7 days of passes ≥ 10°. The values pass through the URL so the page stays shareable.

No JS? Fill the form by hand. The geolocation button needs JavaScript.